Regional Weather Roundup
Issued by NWS

Home | Current Version | Previous Version | Graphics & Text | Print | Product List | Glossary On
Versions: 1 2 3 4 5 6 7 8 9 10 11 12 13 14 15 16 17 18 19 20 21 22 23 24 25 26 27 28
000
ASUS45 KSLC 021510
RWRUT

UTAH REGIONAL WEATHER ROUNDUP
NATIONAL WEATHER SERVICE SALT LAKE CITY UT
800 AM MST FRI DEC 02 2016

UTZ001>011-023>025-021600-

NORTHERN UTAH

CITY           SKY/WX    TMP DP  RH WIND       PRES   REMARKS
BRIGHAM CITY     N/A     29  19  64 W5        30.22R WCI  24
HILL AFB       PTCLDY    22  15  73 E9        30.18R WCI  12
LOGAN          CLEAR     19  16  88 E6        30.23R WCI  11
OGDEN          CLEAR     25  16  68 N5        30.19R WCI  19
SALT LAKE CITY PTCLDY    25  23  92 S3        30.19R
TOOELE VALLEY  CLEAR     18  16  93 CALM      30.20R
WENDOVER       CLEAR     28  12  50 E8        30.24R WCI  20
HEBER CITY     PTCLDY    12   9  85 S3        30.15R
WEST JORDAN    PTCLDY    25  25 100 W9        30.18S WCI  15

$$

UTZ011>015-024>027-021600-

CENTRAL/NORTHEAST UTAH

CITY           SKY/WX    TMP DP  RH WIND       PRES   REMARKS
PROVO AIRPORT  CLEAR     20  16  84 S5        30.19R WCI  13
MOAB/CANYONLAN CLOUDY    29  21  72 NW8       30.05R WCI  21
DELTA          CLEAR     19  19 100 NW6       30.17R WCI  11
PRICE          CLOUDY    26  14  60 NE16      30.05R WCI  14
ROOSEVELT      CLOUDY    23  21  93 W3        30.16R
VERNAL         PTCLDY    17  11  77 CALM      30.13R

$$

UTZ013>016-019>022-027-021600-

SOUTHERN UTAH

CITY           SKY/WX    TMP DP  RH WIND       PRES   REMARKS
BRYCE CANYON   NOT AVBL
CEDAR CITY     MOCLDY    24  18  77 N9        30.06R WCI  14
MILFORD        CLOUDY    26  20  77 N15       30.12R WCI  14
ST GEORGE      CLOUDY    37  18  44 W8        30.06R WCI  31
HANKSVILLE     CLOUDY    32  21  64 CALM      30.09S
BLANDING       CLOUDY    27  18  70 NW5       30.07R WCI  21

$$

REGIONAL REPORTS     COLORADO/ARIZONA

CITY           SKY/WX    TMP DP  RH WIND       PRES   REMARKS
CRAIG, CO      CLOUDY    14  10  84 SE3       30.13R
GRAND JUNCTION CLOUDY    29  22  75 W3        30.07R
RIFLE, CO      CLOUDY    23  19  85 CALM      30.09R
MONTROSE, CO   PTCLDY    19  12  74 SE10      30.09R WCI   7
CORTEZ, CO     CLOUDY    22  17  81 E5        30.00R WCI  16
COLORADO CITY    N/A     32  25  74 CALM      30.03R
PAGE, AZ       PTCLDY    33  15  47 SW3       30.01R
GRAND CANYON   CLOUDY    29  16  58 NE14G21   29.95R WCI  18
KINGMAN, AZ    CLOUDY    36  18  48 NE9       29.96R WCI  29
FLAGSTAFF, AZ  MOCLDY    26  14  60 E8        29.90R WCI  18

$$

REGIONAL REPORTS    NEVADA/IDAHO/WYOMING

CITY           SKY/WX    TMP DP  RH WIND       PRES   REMARKS
LAS VEGAS, NV  PTCLDY    46  15  28 N22G29    30.06R
ELY, NY        CLEAR     16  11  80 N12       30.14R WCI   3
ELKO, NV       CLEAR     14   9  80 SW3       30.26R
POCATELLO, ID  LGT SNOW  20  19  96 W3        30.28R
BURLEY, ID     CLOUDY    25  22  88 W5        30.29R WCI  19
FORT BRIDGER,    N/A     10  10 100 W6        30.15R WCI   1
EVANSTON, WY   FOG       13  10  88 E5        30.12R VSB 1/4 WCI   5
ROCK SPRINGS,  CLOUDY     8   7  95 W6        30.13R WCI  -2

$$




USA.gov is the U.S. government's official web portal to all federal, state and local government web resources and services.